START_TIME,STEP,MOV.,M15,t_acc.,M20,t_acc.
1979-03-01 12:00:33.360 ,4,1,0.,24.0,0.,24.0
1979-03-01 12:00:57.360 ,3,1,0.,24.0,0.,24.0
1979-03-01 12:01:21.360 ,2,1,0.,24.0,0.,24.0
1979-03-01 12:01:45.360 ,1,1,0.,24.0,0.,24.0
1979-03-01 12:02:09.360 ,0,1,0.,24.0,0.,24.0
1979-03-01 12:02:33.360 ,0,1,0.,24.0,0.,24.0
1979-03-01 12:02:57.360 ,1,1,0.,24.0,0.,24.0
1979-03-01 12:03:21.360 ,2,1,0.,24.0,0.,24.0
1979-03-01 12:03:45.360 ,3,1,0.,24.0,0.,24.0
1979-03-01 12:04:09.360 ,4,1,0.,24.0,0.,24.0
1979-03-01 12:04:33.360 ,5,1,0.,24.0,0.,24.0
1979-03-01 12:04:57.360 ,6,1,0.,24.0,0.,24.0
1979-03-01 12:05:21.350 ,7,1,0.,24.0,0.,24.0
1979-03-01 12:05:45.360 ,7,1,0.,24.0,0.,24.0
1979-03-01 12:06:09.350 ,6,1,0.,24.0,0.,24.0
1979-03-01 12:06:33.360 ,5,1,0.,24.0,0.,24.0
1979-03-01 12:06:57.360 ,4,1,0.,24.0,0.,24.0
1979-03-01 12:07:21.350 ,3,1,0.,24.0,0.,24.0
1979-03-01 12:07:45.360 ,2,1,0.,24.0,0.,24.0
1979-03-01 12:08:09.350 ,1,1,0.,24.0,0.,24.0
1979-03-01 12:08:33.350 ,0,1,0.,24.0,0.,24.0
1979-03-01 12:08:57.360 ,0,1,0.,24.0,0.,24.0
1979-03-01 12:09:21.360 ,1,1,0.,24.0,0.,24.0
1979-03-01 12:09:45.360 ,2,1,0.,24.0,0.,24.0
1979-03-01 12:10:09.360 ,3,1,0.,24.0,0.,24.0
1979-03-01 12:10:33.360 ,4,1,0.,24.0,0.,24.0
1979-03-01 12:10:57.360 ,5,1,0.,24.0,0.,24.0
1979-03-01 12:11:21.360 ,6,1,0.,24.0,0.,24.0
1979-03-01 12:11:45.360 ,7,1,0.,24.0,0.,24.0
1979-03-01 12:12:09.360 ,7,1,0.,24.0,0.,24.0
1979-03-01 12:12:33.360 ,6,1,0.,24.0,0.,24.0
1979-03-01 12:12:57.360 ,5,1,0.,24.0,0.,24.0
1979-03-01 12:13:21.360 ,4,1,0.,24.0,0.,24.0
1979-03-01 12:14:33.360 ,0,0,0.,24.0,0.,24.0
1979-03-01 12:14:57.360 ,0,1,0.,24.0,0.,24.0
1979-03-01 12:15:21.360 ,0,1,0.,24.0,0.,24.0
1979-03-01 12:15:45.360 ,1,1,0.,24.0,0.,24.0
1979-03-01 12:16:09.360 ,2,1,0.,24.0,0.,24.0
1979-03-01 12:16:33.360 ,3,1,0.,24.0,0.,24.0
1979-03-01 12:16:57.360 ,4,1,0.,24.0,0.,24.0
1979-03-01 12:17:21.350 ,5,1,0.,24.0,0.,24.0
1979-03-01 12:17:45.350 ,6,1,0.,24.0,0.,24.0
1979-03-01 12:18:09.350 ,7,1,0.,24.0,0.,24.0
1979-03-01 12:18:33.350 ,7,1,0.,24.0,0.,24.0
1979-03-01 12:18:57.350 ,6,1,0.,24.0,0.,24.0
1979-03-01 12:19:21.350 ,5,1,0.,24.0,0.,24.0
1979-03-01 12:19:45.350 ,4,1,0.,24.0,0.,24.0
1979-03-01 12:20:09.350 ,3,1,0.,24.0,0.,24.0
1979-03-01 12:20:33.350 ,2,1,0.,24.0,0.,24.0
1979-03-01 12:20:57.350 ,1,1,0.,24.0,0.,24.0
1979-03-01 12:21:21.350 ,0,1,0.,24.0,0.,24.0
1979-03-01 12:21:45.350 ,0,1,0.,24.0,0.,24.0
1979-03-01 12:22:09.350 ,1,1,0.,24.0,0.,24.0
1979-03-01 12:22:33.350 ,2,1,0.,24.0,0.,24.0
1979-03-01 12:22:57.350 ,3,1,0.,24.0,0.,24.0
1979-03-01 12:23:21.350 ,4,1,0.,24.0,0.,24.0
1979-03-01 12:23:45.350 ,5,1,0.,24.0,0.,24.0
1979-03-01 12:24:09.350 ,6,1,0.,24.0,0.,24.0
1979-03-01 12:24:33.350 ,7,1,0.,24.0,0.,24.0
1979-03-01 12:24:57.350 ,7,1,0.,24.0,0.,24.0
1979-03-01 12:25:21.350 ,6,1,0.,24.0,0.,24.0
1979-03-01 12:25:45.350 ,5,1,0.,24.0,0.,24.0
1979-03-01 12:26:09.350 ,4,1,0.,24.0,0.,24.0
1979-03-01 12:26:33.350 ,3,1,0.,24.0,0.,24.0
1979-03-01 12:26:57.350 ,2,1,0.,24.0,0.,24.0
1979-03-01 12:27:21.350 ,1,1,0.,24.0,0.,24.0
1979-03-01 12:27:45.350 ,0,1,0.,24.0,0.,24.0
1979-03-01 12:28:09.350 ,0,1,0.,24.0,0.,24.0
1979-03-01 12:28:33.350 ,1,1,0.,24.0,0.,24.0
1979-03-01 12:28:57.350 ,2,1,0.,24.0,0.,24.0
1979-03-01 12:29:21.350 ,3,1,0.,24.0,0.,24.0
1979-03-01 12:29:45.350 ,4,1,0.,24.0,0.,24.0
1979-03-01 12:30:09.350 ,5,1,0.,24.0,0.,24.0
1979-03-01 12:30:33.350 ,6,1,0.,24.0,0.,24.0
1979-03-01 12:30:57.350 ,7,1,0.,24.0,0.,24.0
1979-03-01 12:31:21.350 ,7,1,0.,24.0,0.,24.0
1979-03-01 12:31:45.350 ,6,1,0.,24.0,0.,24.0
1979-03-01 12:32:09.350 ,5,1,0.,24.0,0.,24.0
1979-03-01 12:32:33.350 ,4,1,0.,24.0,0.,24.0
1979-03-01 12:32:57.350 ,3,1,0.,24.0,0.,24.0
1979-03-01 12:33:21.350 ,2,1,0.,24.0,0.,24.0
1979-03-01 12:33:45.350 ,1,1,0.,24.0,0.,24.0
1979-03-01 12:34:09.350 ,0,1,0.,24.0,0.,24.0
1979-03-01 12:34:33.360 ,0,1,0.,24.0,0.,24.0
1979-03-01 12:34:57.360 ,1,1,0.,24.0,0.,24.0
1979-03-01 12:35:21.360 ,2,1,0.,24.0,0.,24.0
1979-03-01 12:35:45.360 ,3,1,0.,24.0,0.,24.0
1979-03-01 12:36:09.360 ,4,1,0.,24.0,0.,24.0
1979-03-01 12:36:33.360 ,5,1,0.,24.0,0.,24.0
1979-03-01 12:36:57.360 ,6,1,0.,24.0,0.,24.0
1979-03-01 12:37:21.360 ,7,1,0.,24.0,0.,24.0
1979-03-01 12:37:45.360 ,7,1,0.,24.0,0.,24.0
1979-03-01 12:38:09.360 ,6,1,0.,24.0,0.,24.0
1979-03-01 12:38:33.360 ,5,1,0.,24.0,0.,24.0
1979-03-01 12:38:57.360 ,4,1,0.,24.0,0.,24.0
1979-03-01 12:39:21.360 ,3,1,0.,24.0,0.,24.0
1979-03-01 12:39:45.360 ,2,1,0.,24.0,0.,24.0
1979-03-01 12:40:09.360 ,1,1,0.,24.0,0.,24.0
1979-03-01 12:40:33.360 ,0,1,0.,24.0,0.,24.0
1979-03-01 12:40:57.360 ,0,1,0.,24.0,0.,24.0
1979-03-01 12:41:21.360 ,1,1,0.,24.0,0.,24.0
1979-03-01 12:41:45.360 ,2,1,0.,24.0,0.,24.0
1979-03-01 12:42:09.360 ,3,1,0.,24.0,0.,24.0
1979-03-01 12:42:33.360 ,4,1,0.,24.0,0.,24.0
1979-03-01 12:42:57.360 ,5,1,0.,24.0,0.,24.0
1979-03-01 12:43:21.360 ,6,1,0.,24.0,0.,24.0
1979-03-01 12:43:45.360 ,7,1,0.,24.0,0.,24.0
1979-03-01 12:44:09.360 ,7,1,0.,24.0,0.,24.0
1979-03-01 12:44:33.360 ,6,1,0.,24.0,0.,24.0
1979-03-01 12:44:57.360 ,5,1,0.,24.0,0.,24.0
1979-03-01 12:45:21.360 ,4,1,0.,24.0,0.,24.0
1979-03-01 12:45:45.360 ,3,1,0.,24.0,0.,24.0
1979-03-01 12:46:09.360 ,2,1,0.,24.0,0.,24.0
1979-03-01 12:46:33.360 ,1,1,0.,24.0,0.,24.0
1979-03-01 12:46:57.360 ,0,1,0.,24.0,0.,24.0
1979-03-01 12:47:21.360 ,0,1,0.,24.0,0.,24.0
1979-03-01 12:47:45.360 ,1,1,0.,24.0,0.,24.0
1979-03-01 12:48:09.360 ,2,1,0.,24.0,0.,24.0
1979-03-01 12:48:33.360 ,3,1,0.,24.0,0.,24.0
1979-03-01 12:48:57.360 ,4,1,0.,24.0,0.,24.0
1979-03-01 12:49:21.360 ,5,1,0.,24.0,0.,24.0
1979-03-01 12:49:45.360 ,6,1,0.,24.0,0.,24.0
1979-03-01 12:50:09.360 ,7,1,0.,24.0,0.,24.0
1979-03-01 12:50:33.360 ,7,1,0.,24.0,0.,24.0
1979-03-01 12:50:57.360 ,6,1,0.,24.0,0.,24.0
1979-03-01 12:51:21.360 ,5,1,0.,24.0,0.,24.0
1979-03-01 12:51:45.360 ,4,1,0.,24.0,0.,24.0
1979-03-01 12:52:09.360 ,3,1,0.,24.0,0.,24.0
1979-03-01 12:52:33.360 ,2,1,0.,24.0,0.,24.0
1979-03-01 12:52:57.360 ,1,1,0.,24.0,0.,24.0
1979-03-01 12:53:21.360 ,0,1,0.,24.0,0.,24.0
1979-03-01 12:53:45.360 ,0,1,0.,24.0,0.,24.0
1979-03-01 12:54:09.360 ,1,1,0.,24.0,0.,24.0
1979-03-01 12:54:33.360 ,2,1,0.,24.0,0.,24.0
1979-03-01 12:54:57.360 ,3,1,0.,24.0,0.,24.0
1979-03-01 12:55:21.360 ,4,1,0.,24.0,0.,24.0
1979-03-01 12:55:45.360 ,5,1,0.,24.0,0.,24.0
1979-03-01 12:56:09.360 ,6,1,0.,24.0,0.,24.0
1979-03-01 12:56:33.360 ,7,1,0.,24.0,0.,24.0
1979-03-01 12:56:57.360 ,7,1,0.,24.0,0.,24.0
1979-03-01 12:57:21.360 ,6,1,0.,24.0,0.,24.0
1979-03-01 12:57:45.360 ,5,1,0.,24.0,0.,24.0
1979-03-01 12:58:09.360 ,4,1,0.,24.0,0.,24.0
1979-03-01 12:58:33.360 ,3,1,0.,24.0,0.,24.0
1979-03-01 12:58:57.360 ,2,1,0.,24.0,0.,24.0
1979-03-01 12:59:21.360 ,1,1,0.,24.0,0.,24.0
1979-03-01 12:59:45.360 ,0,1,0.,24.0,0.,24.0
1979-03-01 13:00:09.360 ,0,1,0.,24.0,0.,24.0
1979-03-01 13:00:33.360 ,1,1,0.,24.0,0.,24.0
1979-03-01 13:00:57.360 ,2,1,0.,24.0,0.,24.0
1979-03-01 13:01:21.360 ,3,1,0.,24.0,0.,24.0
1979-03-01 13:01:45.360 ,4,1,0.,24.0,0.,24.0
1979-03-01 13:02:09.360 ,5,1,0.,24.0,0.,24.0
1979-03-01 13:02:33.360 ,6,1,0.,24.0,0.,24.0
1979-03-01 13:02:57.360 ,7,1,0.,24.0,0.,24.0
1979-03-01 13:03:21.360 ,7,1,0.,24.0,0.,24.0
1979-03-01 13:03:45.360 ,6,1,0.,24.0,0.,24.0
1979-03-01 13:04:09.360 ,5,1,0.,24.0,0.,24.0
1979-03-01 13:04:33.360 ,4,1,0.,24.0,0.,24.0
1979-03-01 13:04:57.360 ,3,1,0.,24.0,0.,24.0
1979-03-01 13:05:21.360 ,2,1,0.,24.0,0.,24.0
1979-03-01 13:05:45.360 ,1,1,0.,24.0,0.,24.0
1979-03-01 13:06:09.360 ,0,1,0.,24.0,0.,24.0
1979-03-01 13:06:33.360 ,0,1,0.,24.0,0.,24.0
1979-03-01 13:06:57.360 ,1,1,0.,24.0,0.,24.0
1979-03-01 13:07:21.360 ,2,1,0.,24.0,0.,24.0
1979-03-01 13:07:45.360 ,3,1,0.,24.0,0.,24.0
1979-03-01 13:08:09.360 ,4,1,0.,24.0,0.,24.0
1979-03-01 13:08:33.360 ,5,1,0.,24.0,0.,24.0
1979-03-01 13:08:57.360 ,6,1,0.,24.0,0.,24.0
1979-03-01 13:09:21.360 ,7,1,0.,24.0,0.,24.0
1979-03-01 13:09:45.360 ,7,1,0.,24.0,0.,24.0
1979-03-01 13:10:09.360 ,6,1,0.,24.0,0.,24.0
1979-03-01 13:10:33.360 ,5,1,0.,24.0,0.,24.0
1979-03-01 13:10:57.360 ,4,1,0.,24.0,0.,24.0
1979-03-01 13:11:21.360 ,3,1,0.,24.0,0.,24.0
1979-03-01 13:11:45.360 ,2,1,0.,24.0,0.,24.0
1979-03-01 13:12:09.360 ,1,1,0.,24.0,0.,24.0
1979-03-01 13:12:33.360 ,0,1,0.,24.0,0.,24.0
1979-03-01 13:12:57.360 ,0,1,0.,24.0,0.,24.0
1979-03-01 13:13:21.360 ,1,1,0.,24.0,0.,24.0
1979-03-01 13:13:45.360 ,2,1,0.,24.0,0.,24.0
1979-03-01 13:14:09.360 ,3,1,0.,24.0,0.,24.0
1979-03-01 13:14:33.360 ,4,1,0.,24.0,0.,24.0
1979-03-01 13:14:57.360 ,5,1,0.,24.0,0.,24.0
1979-03-01 13:15:21.360 ,6,1,0.,24.0,0.,24.0
1979-03-01 13:15:45.360 ,7,1,0.,24.0,0.,24.0
1979-03-01 13:16:09.360 ,7,1,0.,24.0,0.,24.0
1979-03-01 13:16:33.360 ,6,1,0.,24.0,0.,24.0
1979-03-01 13:16:57.360 ,5,1,0.,24.0,0.,24.0
1979-03-01 13:17:21.360 ,4,1,0.,24.0,0.,24.0
1979-03-01 13:17:45.360 ,3,1,0.,24.0,0.,24.0
1979-03-01 13:18:09.360 ,2,1,0.,24.0,0.,24.0
1979-03-01 13:18:33.360 ,1,1,0.,24.0,0.,24.0
1979-03-01 13:18:57.360 ,0,1,0.,24.0,0.,24.0
1979-03-01 13:19:21.360 ,0,1,0.,24.0,0.,24.0
1979-03-01 13:19:45.360 ,1,1,0.,24.0,0.,24.0
1979-03-01 13:20:09.360 ,2,1,0.,24.0,0.,24.0
1979-03-01 13:20:33.360 ,3,1,0.,24.0,0.,24.0
1979-03-01 13:20:57.360 ,4,1,0.,24.0,0.,24.0
1979-03-01 13:21:21.360 ,5,1,0.,24.0,0.,24.0
1979-03-01 13:21:45.360 ,6,1,0.,24.0,0.,24.0
1979-03-01 13:22:09.360 ,7,1,0.,24.0,0.,24.0
1979-03-01 13:22:33.360 ,7,1,0.,24.0,0.,24.0
1979-03-01 13:22:57.360 ,6,1,0.,24.0,0.,24.0
1979-03-01 13:23:21.360 ,5,1,0.,24.0,0.,24.0
1979-03-01 13:23:45.360 ,4,1,1.,24.0,0.,24.0
1979-03-01 13:24:09.360 ,3,1,0.,24.0,0.,24.0
1979-03-01 13:24:33.360 ,2,1,0.,24.0,0.,24.0
1979-03-01 13:24:57.360 ,1,1,0.,24.0,0.,24.0
1979-03-01 13:25:21.360 ,0,1,0.,24.0,0.,24.0
1979-03-01 13:25:45.360 ,0,1,0.,24.0,0.,24.0
1979-03-01 13:26:09.360 ,1,1,0.,24.0,0.,24.0
1979-03-01 13:26:33.360 ,2,1,0.,24.0,0.,24.0
1979-03-01 13:26:57.360 ,3,1,0.,24.0,0.,24.0
1979-03-01 13:27:21.360 ,4,1,0.,24.0,0.,24.0
1979-03-01 13:27:45.360 ,5,1,0.,24.0,0.,24.0
1979-03-01 13:28:09.360 ,6,1,0.,24.0,0.,24.0
1979-03-01 13:28:33.360 ,7,1,0.,24.0,0.,24.0
1979-03-01 13:28:57.360 ,7,1,0.,24.0,0.,24.0
1979-03-01 13:29:21.360 ,6,1,0.,24.0,0.,24.0
1979-03-01 13:29:45.360 ,5,1,0.,24.0,0.,24.0
1979-03-01 13:30:09.360 ,4,1,0.,24.0,0.,24.0
1979-03-01 13:30:33.360 ,3,1,0.,24.0,0.,24.0
1979-03-01 13:30:57.360 ,2,1,0.,24.0,0.,24.0
1979-03-01 13:31:21.360 ,1,1,0.,24.0,0.,24.0
1979-03-01 13:31:45.360 ,0,1,0.,24.0,0.,24.0
1979-03-01 13:32:09.360 ,0,1,0.,24.0,0.,24.0
1979-03-01 13:32:33.360 ,1,1,0.,24.0,0.,24.0
1979-03-01 13:32:57.360 ,2,1,0.,24.0,0.,24.0
1979-03-01 13:33:21.360 ,3,1,0.,24.0,0.,24.0
1979-03-01 13:33:45.360 ,4,1,0.,24.0,0.,24.0
1979-03-01 13:34:09.360 ,5,1,0.,24.0,0.,24.0
1979-03-01 13:34:33.360 ,6,1,0.,24.0,0.,24.0
1979-03-01 13:34:57.360 ,7,1,0.,24.0,0.,24.0
1979-03-01 13:35:21.360 ,7,1,0.,24.0,0.,24.0
1979-03-01 13:35:45.360 ,6,1,0.,24.0,0.,24.0
1979-03-01 13:36:09.360 ,5,1,0.,24.0,0.,24.0
1979-03-01 13:36:33.360 ,4,1,0.,24.0,0.,24.0
1979-03-01 13:36:57.360 ,3,1,0.,24.0,0.,24.0
1979-03-01 13:37:21.360 ,2,1,0.,24.0,0.,24.0
1979-03-01 13:37:45.360 ,1,1,0.,24.0,0.,24.0
1979-03-01 13:38:09.360 ,0,1,0.,24.0,0.,24.0
1979-03-01 13:38:33.360 ,0,1,0.,24.0,0.,24.0
1979-03-01 13:38:57.360 ,1,1,0.,24.0,0.,24.0
1979-03-01 13:39:21.360 ,2,1,0.,24.0,0.,24.0
1979-03-01 13:39:45.360 ,3,1,0.,24.0,0.,24.0
1979-03-01 13:40:09.360 ,4,1,0.,24.0,0.,24.0
1979-03-01 13:40:33.360 ,5,1,0.,24.0,0.,24.0
1979-03-01 13:40:57.360 ,6,1,0.,24.0,0.,24.0
1979-03-01 13:41:21.360 ,7,1,0.,24.0,0.,24.0
1979-03-01 13:41:45.360 ,7,1,0.,24.0,0.,24.0
1979-03-01 13:42:09.360 ,6,1,0.,24.0,0.,24.0
1979-03-01 13:42:33.360 ,5,1,0.,24.0,0.,24.0
1979-03-01 13:42:57.360 ,4,1,0.,24.0,0.,24.0
1979-03-01 13:43:21.360 ,3,1,0.,24.0,0.,24.0
1979-03-01 13:43:45.360 ,2,1,0.,24.0,0.,24.0
1979-03-01 13:44:09.360 ,1,1,0.,24.0,0.,24.0
1979-03-01 13:44:33.360 ,0,0,0.,24.0,0.,24.0
1979-03-01 13:44:57.360 ,0,1,0.,24.0,0.,24.0
1979-03-01 13:45:21.360 ,1,1,0.,24.0,0.,24.0
1979-03-01 13:45:45.360 ,2,1,0.,24.0,0.,24.0
1979-03-01 13:46:09.360 ,3,1,0.,24.0,0.,24.0
1979-03-01 13:46:33.360 ,4,1,0.,24.0,0.,24.0
1979-03-01 13:46:57.360 ,5,1,0.,24.0,0.,24.0
1979-03-01 13:47:21.360 ,6,1,0.,24.0,0.,24.0
1979-03-01 13:47:45.360 ,7,1,0.,24.0,0.,24.0
1979-03-01 13:48:09.360 ,7,1,0.,24.0,0.,24.0
1979-03-01 13:48:33.360 ,6,1,0.,24.0,0.,24.0
1979-03-01 13:48:57.360 ,5,1,0.,24.0,0.,24.0
1979-03-01 13:49:21.360 ,4,1,0.,24.0,0.,24.0
1979-03-01 13:49:45.360 ,3,1,0.,24.0,0.,24.0
1979-03-01 13:50:09.360 ,2,1,0.,24.0,0.,24.0
1979-03-01 13:50:33.360 ,1,1,0.,24.0,0.,24.0
1979-03-01 13:50:57.360 ,0,1,0.,24.0,0.,24.0
1979-03-01 13:51:21.360 ,0,1,0.,24.0,0.,24.0
1979-03-01 13:51:45.360 ,0,0,0.,24.0,0.,24.0
1979-03-01 13:52:12.960 ,0,0,0.,24.0,0.,24.0
1979-03-01 13:52:33.360 ,3,1,0.,24.0,0.,24.0
1979-03-01 13:52:57.360 ,4,1,0.,24.0,0.,24.0
1979-03-01 13:53:21.360 ,5,1,0.,24.0,0.,24.0
1979-03-01 13:53:45.360 ,6,1,0.,24.0,0.,24.0
1979-03-01 13:54:09.360 ,7,1,0.,24.0,0.,24.0
1979-03-01 13:54:33.360 ,7,1,0.,24.0,0.,24.0
1979-03-01 13:54:57.360 ,6,1,0.,24.0,0.,24.0
1979-03-01 13:55:21.360 ,5,1,0.,24.0,0.,24.0
1979-03-01 13:55:45.360 ,4,1,0.,24.0,0.,24.0
1979-03-01 13:56:09.360 ,3,1,0.,24.0,0.,24.0
1979-03-01 13:56:33.360 ,2,1,0.,24.0,0.,24.0
1979-03-01 13:56:57.360 ,1,1,0.,24.0,0.,24.0
1979-03-01 13:57:21.360 ,0,1,0.,24.0,0.,24.0
1979-03-01 13:57:45.360 ,0,1,0.,24.0,0.,24.0
1979-03-01 13:58:09.360 ,1,1,0.,24.0,0.,24.0
1979-03-01 13:58:33.360 ,2,1,0.,24.0,0.,24.0
1979-03-01 13:58:57.360 ,3,1,0.,24.0,0.,24.0
1979-03-01 13:59:21.360 ,4,1,0.,24.0,0.,24.0
1979-03-01 13:59:45.360 ,5,1,0.,24.0,0.,24.0
1979-03-01 14:00:09.360 ,6,1,0.,24.0,0.,24.0
1979-03-01 14:00:33.360 ,7,1,0.,24.0,0.,24.0
1979-03-01 14:00:57.360 ,7,1,0.,24.0,0.,24.0
1979-03-01 14:01:21.360 ,6,1,0.,24.0,0.,24.0
1979-03-01 14:01:45.360 ,5,1,0.,24.0,0.,24.0
1979-03-01 14:02:09.360 ,4,1,0.,24.0,0.,24.0
1979-03-01 14:02:33.360 ,3,1,0.,24.0,0.,24.0
1979-03-01 14:02:57.360 ,2,1,0.,24.0,0.,24.0
1979-03-01 14:03:21.360 ,1,1,0.,24.0,0.,24.0
1979-03-01 14:03:45.360 ,0,1,0.,24.0,0.,24.0
1979-03-01 14:04:09.360 ,0,1,0.,24.0,0.,24.0
1979-03-01 14:04:33.360 ,1,1,0.,24.0,0.,24.0
1979-03-01 14:04:57.360 ,2,1,0.,24.0,0.,24.0
1979-03-01 14:05:21.360 ,3,1,0.,24.0,0.,24.0
1979-03-01 14:05:45.360 ,4,1,0.,24.0,0.,24.0
1979-03-01 14:06:09.360 ,5,1,0.,24.0,0.,24.0
1979-03-01 14:06:33.360 ,6,1,0.,24.0,0.,24.0
1979-03-01 14:06:57.360 ,7,1,0.,24.0,0.,24.0
1979-03-01 14:07:21.360 ,7,1,0.,24.0,0.,24.0
1979-03-01 14:07:45.360 ,6,1,0.,24.0,0.,24.0
1979-03-01 14:08:09.360 ,5,1,0.,24.0,0.,24.0
1979-03-01 14:08:33.360 ,4,1,0.,24.0,0.,24.0
1979-03-01 14:08:57.360 ,3,1,0.,24.0,0.,24.0
1979-03-01 14:09:21.360 ,0,0,0.,24.0,0.,24.0
1979-03-01 14:23:38.160 ,0,0,0.,24.0,0.,24.0
1979-03-01 14:23:45.360 ,1,1,0.,24.0,0.,24.0
1979-03-01 14:24:09.360 ,2,1,0.,24.0,0.,24.0
1979-03-01 14:24:33.360 ,3,1,0.,24.0,0.,24.0
1979-03-01 14:24:57.360 ,4,1,0.,24.0,0.,24.0
1979-03-01 14:25:21.360 ,5,1,0.,24.0,0.,24.0
1979-03-01 14:25:45.360 ,6,1,0.,24.0,0.,24.0
1979-03-01 14:26:09.360 ,7,1,0.,24.0,0.,24.0
1979-03-01 14:26:33.360 ,7,1,0.,24.0,0.,24.0
1979-03-01 14:26:57.360 ,6,1,0.,24.0,0.,24.0
1979-03-01 14:27:21.360 ,5,1,0.,24.0,0.,24.0
1979-03-01 14:27:45.360 ,0,0,0.,24.0,0.,24.0
1979-03-01 14:28:06.360 ,0,0,0.,24.0,0.,24.0
1979-03-01 14:28:06.960 ,0,0,,0,,0
1979-03-01 14:28:07.560 ,0,0,,0,,0
1979-03-01 14:28:08.160 ,0,0,,0,,0
1979-03-01 14:28:09.360 ,0,0,,0,,0
1979-03-01 14:28:33.360 ,0,0,,0,,0
1979-03-01 14:28:33.360 ,0,0,,0,,0
1979-03-01 14:28:33.360 ,0,0,,0,,0
1979-03-01 14:28:33.360 ,0,0,,0,,0
1979-03-01 14:28:33.360 ,0,0,,0,,0
1979-03-01 14:28:33.360 ,0,0,,0,,0
1979-03-01 14:28:33.360 ,0,0,,0,,0
1979-03-01 14:28:33.360 ,0,0,,0,,0
1979-03-01 14:28:33.360 ,0,0,,0,,0
1979-03-01 14:28:33.360 ,0,0,,0,,0
1979-03-01 14:28:33.360 ,0,0,,0,,0
1979-03-01 14:28:33.360 ,0,0,,0,,0
1979-03-01 14:28:33.360 ,0,0,,0,,0
1979-03-01 14:28:33.360 ,0,0,,0,,0
1979-03-01 14:28:33.360 ,0,0,,0,,0
1979-03-01 14:28:33.360 ,0,0,,0,,0
1979-03-01 14:28:33.360 ,0,0,,0,,0
1979-03-01 14:28:33.360 ,2,1,0.,24.0,0.,24.0
1979-03-01 14:28:57.360 ,1,1,0.,24.0,0.,24.0
1979-03-01 14:29:21.360 ,0,1,0.,24.0,0.,24.0
1979-03-01 14:29:45.360 ,0,1,0.,24.0,0.,24.0
1979-03-01 14:30:09.360 ,1,1,0.,24.0,0.,24.0
1979-03-01 14:30:33.360 ,2,1,0.,24.0,0.,24.0
1979-03-01 14:30:57.360 ,3,1,0.,24.0,0.,24.0
1979-03-01 14:31:21.360 ,4,1,0.,24.0,0.,24.0
1979-03-01 14:31:45.360 ,5,1,0.,24.0,0.,24.0
1979-03-01 14:32:09.360 ,6,1,0.,24.0,0.,24.0
1979-03-01 14:32:33.360 ,7,1,0.,24.0,0.,24.0
1979-03-01 14:32:57.360 ,7,1,0.,24.0,0.,24.0
1979-03-01 14:49:21.360 ,1,1,0.,24.0,0.,24.0
1979-03-01 14:49:45.360 ,2,1,0.,24.0,0.,24.0
1979-03-01 14:50:09.360 ,3,1,0.,24.0,0.,24.0
1979-03-01 14:50:33.360 ,4,1,0.,24.0,0.,24.0
1979-03-01 14:50:57.360 ,5,1,0.,24.0,0.,24.0
1979-03-01 14:51:21.360 ,6,1,0.,24.0,0.,24.0
1979-03-01 14:51:45.360 ,7,1,0.,24.0,0.,24.0
1979-03-01 14:52:09.360 ,7,1,0.,24.0,0.,24.0
1979-03-01 14:52:33.360 ,6,1,0.,24.0,0.,24.0
1979-03-01 14:52:57.360 ,5,1,0.,24.0,0.,24.0
1979-03-01 14:53:21.360 ,4,1,0.,24.0,0.,24.0
1979-03-01 14:53:45.360 ,3,1,0.,24.0,0.,24.0
1979-03-01 14:54:09.360 ,2,1,0.,24.0,0.,24.0
1979-03-01 14:54:33.360 ,1,1,0.,24.0,0.,24.0
1979-03-01 14:54:57.360 ,0,1,0.,24.0,0.,24.0
1979-03-01 14:55:21.360 ,0,1,0.,24.0,0.,24.0
1979-03-01 14:55:45.360 ,1,1,0.,24.0,0.,24.0
1979-03-01 14:56:09.360 ,2,1,0.,24.0,0.,24.0
1979-03-01 14:56:33.360 ,3,1,0.,24.0,0.,24.0
1979-03-01 14:56:57.360 ,4,1,0.,24.0,0.,24.0
1979-03-01 14:57:21.360 ,5,1,0.,24.0,0.,24.0
1979-03-01 14:57:45.360 ,6,1,0.,24.0,0.,24.0
1979-03-01 14:58:09.360 ,7,1,0.,24.0,0.,24.0
1979-03-01 14:58:33.360 ,7,1,0.,24.0,0.,24.0
1979-03-01 14:58:57.360 ,6,1,0.,24.0,0.,24.0
1979-03-01 14:59:21.360 ,5,1,0.,24.0,0.,24.0
1979-03-01 14:59:45.360 ,4,1,0.,24.0,0.,24.0
1979-03-01 15:00:09.360 ,3,1,0.,24.0,0.,24.0
